Location: Newark
(30.2328°N, 54.2869°E)
Time: 04:01:27
(UTC+00:00)

ISS - Visible Passes

Search period start: 19 July 2019 00:00
Search period end: 29 July 2019 00:00
Orbit: 409 x 418 km, 51.6° (Epoch: 19 July)

Date Brightness Start Highest point End Pass type
(mag) Time Alt. Az. Time Alt. Az. Time Alt. Az.
19 Jul -3.9 00:28:02 10° NW 00:31:17 65° SW 00:34:33 10° SE visible
19 Jul -0.3 17:08:07 10° NW 17:09:23 12° NNW 17:10:39 10° N visible
19 Jul -3.2 23:38:47 10° NW 23:42:03 56° NE 23:45:17 10° SE visible
20 Jul -0.7 16:17:25 10° W 16:19:55 19° NW 16:22:25 10° N visible
